Location: Newark
(32.8369°N, 35.2736°E)
Time: 21:53:24
(UTC+00:00)

LightSail 2 - Pass Details

Date: 29 November 2019
Orbit: 695 x 731 km, 24.0° (Epoch: 05 December)

Event Time Altitude Azimuth Distance (km) Brightness Sun altitude
Rises 16:14:45 0° 227° (SW) 3,076 9.4 -21.1°
Reaches altitude 10° 16:17:47 10° 210° (SSW) 2,152 8.2 -21.7°
Maximum altitude 16:21:21 19° 165° (SSE) 1,611 6.9 -22.4°
Enters shadow 16:22:13 19° 152° (SSE) 1,646 6.8 -22.6°
